CW1844 Weather Reports


time (UTC)temp
F
wind
direction
speed
knots
gust
knots
rain 1hr
in
rain 24hr
in
rain mn
in
humidity
%
barometer
mb
20260505200912 57 360 0.0 0.0 0.00 0.00 0.00 83 1016.0
20260505195915 57 355 0.0 0.0 0.00 0.00 0.00 82 1015.9
20260505194921 57 32 0.0 0.0 0.00 0.00 0.00 80 1016.0
20260505193914 57 11 0.0 0.0 0.00 0.00 0.00 80 1016.0
20260505191914 57 5 0.0 0.0 0.00 0.00 0.00 78 1015.9
20260505190916 58 5 0.0 0.0 0.00 0.00 0.00 79 1016.1
20260505184921 58 5 0.0 0.0 0.00 0.00 0.00 78 1015.9
20260505183931 57 5 0.0 0.0 0.00 0.00 0.00 78 1015.8
20260505182932 57 5 0.0 0.0 0.00 0.00 0.00 78 1015.8
20260505181906 57 5 0.0 0.0 0.00 0.00 0.00 77 1015.8
20260505180915 57 11 0.0 0.0 0.00 0.00 0.00 78 1015.7
20260505175906 57 5 0.0 0.0 0.00 0.00 0.00 78 1015.6
20260505174916 57 5 0.0 0.0 0.00 0.00 0.00 78 1015.6
20260505172917 56 342 0.0 0.0 0.00 0.00 0.00 80 1015.6
20260505165909 55 233 0.0 0.0 0.00 0.00 0.00 82 1015.2
20260505164915 55 227 0.0 0.0 0.00 0.00 0.00 84 1015.3
20260505163931 54 340 0.0 0.0 0.00 0.00 0.00 86 1015.2
20260505161914 52 355 0.0 0.0 0.00 0.00 0.00 91 1015.2
20260505152924 50 355 0.0 0.0 0.00 0.00 0.00 93 1015.1
20260505124905 49 355 0.0 0.0 0.00 0.00 0.00 92 1014.3
20260505122916 49 355 0.0 0.0 0.00 0.00 0.00 91 1014.3
20260505121913 49 355 0.0 0.0 0.00 0.00 0.00 91 1014.4
20260505114926 49 355 0.0 0.0 0.00 0.00 0.00 91 1014.5
20260505112919 49 355 0.0 0.0 0.00 0.00 0.00 91 1014.5
20260505110912 49 355 0.0 0.0 0.00 0.00 0.00 91 1014.3
20260505100910 50 355 0.0 0.0 0.00 0.00 0.00 90 1014.5
20260505094903 50 355 0.0 0.0 0.00 0.00 0.00 90 1014.7
20260505093903 50 355 0.0 0.0 0.00 0.00 0.00 90 1014.6
20260505092909 50 355 0.0 0.0 0.00 0.00 0.00 90 1014.6
20260505085904 50 355 0.0 0.0 0.00 0.00 0.00 90 1014.8
20260505083903 50 355 0.0 0.0 0.00 0.00 0.00 90 1015.0
20260505081911 50 355 0.0 0.0 0.00 0.00 0.00 90 1015.1
20260505080912 50 355 0.0 0.0 0.00 0.00 0.00 90 1015.3
20260505074941 50 355 0.0 0.0 0.00 0.00 0.00 89 1015.2
20260505073918 50 355 0.0 0.0 0.00 0.00 0.00 89 1015.2
20260505072910 50 355 0.0 0.0 0.00 0.00 0.00 89 1015.1
20260505071921 50 355 0.0 0.0 0.00 0.00 0.00 88 1015.0
20260505070904 50 355 0.0 0.0 0.00 0.00 0.00 88 1014.9
20260505065951 51 355 0.0 0.0 0.00 0.00 0.00 87 1015.0
20260505064920 51 355 0.0 0.0 0.00 0.00 0.00 87 1015.0
20260505063913 51 355 0.0 0.0 0.00 0.00 0.00 86 1014.9
20260505062915 51 355 0.0 0.0 0.00 0.00 0.00 86 1014.7
20260505061925 52 355 0.0 0.0 0.00 0.00 0.00 85 1014.8
20260505060941 52 355 0.0 0.0 0.00 0.00 0.00 84 1014.8
20260505060036 52 355 0.0 0.0 0.00 0.00 0.00 84 1014.9
20260505055028 52 355 0.0 0.0 0.00 0.00 0.00 84 1015.1
20260505052937 52 355 0.0 0.0 0.00 0.00 0.00 83 1015.4
20260505051941 53 355 0.0 0.0 0.00 0.00 0.00 83 1015.5
20260505040909 54 14 0.0 0.0 0.00 0.00 0.00 78 1015.0
20260505035941 54 319 0.0 0.0 0.00 0.00 0.00 77 1014.8
20260505034908 55 318 0.0 0.0 0.00 0.00 0.00 75 1014.3
20260505033918 55 67 0.0 0.0 0.00 0.00 0.00 74 1014.2
20260505032903 55 65 0.0 0.0 0.00 0.00 0.00 74 1014.1
20260505031902 56 65 0.0 0.0 0.00 0.00 0.00 73 1014.2
20260505030928 56 65 0.0 0.0 0.00 0.00 0.00 72 1014.2
20260505025942 57 342 0.0 0.0 0.00 0.00 0.00 71 1014.2
20260505024909 57 18 0.0 0.0 0.00 0.00 0.00 72 1013.8
20260505023933 57 18 0.0 0.0 0.00 0.00 0.00 71 1014.1
20260505022941 58 10 0.0 0.0 0.00 0.00 0.00 71 1013.9
20260505022019 58 28 0.0 0.0 0.00 0.00 0.00 70 1013.8
20260505020854 59 5 0.0 0.0 0.00 0.00 0.00 69 1013.8
20260505013856 60 5 0.0 0.0 0.00 0.00 0.00 67 1013.9
20260505012850 60 355 0.0 0.0 0.00 0.00 0.00 66 1013.9
20260505011848 61 5 0.0 0.0 0.00 0.00 0.00 66 1014.0
20260505010847 61 360 0.0 0.0 0.00 0.00 0.00 66 1014.1
20260505005923 61 5 0.0 0.0 0.00 0.00 0.00 67 1014.1
20260505004853 60 5 0.0 0.0 0.00 0.00 0.00 67 1014.2
20260505003905 61 17 0.0 0.0 0.00 0.00 0.00 67 1014.3
20260505002910 61 347 0.0 0.0 0.00 0.00 0.00 67 1014.3
20260505001856 60 30 0.0 0.0 0.00 0.00 0.00 66 1014.2
20260505000951 60 49 0.0 0.0 0.00 0.00 0.00 66 1014.3
20260504235951 61 346 0.0 0.0 0.00 0.00 0.00 68 1014.1
20260504234910 61 349 0.0 0.0 0.00 0.00 0.00 68 1014.3
20260504231845 62 322 0.0 0.0 0.00 0.00 0.00 65 1014.2
20260504230854 62 360 0.0 0.0 0.00 0.00 0.00 65 1014.4
20260504223844 62 15 0.0 2.6 0.00 0.00 0.00 67 1014.4
20260504222914 61 20 0.0 2.6 0.00 0.00 0.00 65 1014.5
20260504221916 62 5 1.7 3.5 0.00 0.00 0.00 62 1014.6
20260504220923 63 84 0.0 0.0 0.00 0.00 0.00 60 1014.9
20260504215923 64 21 0.0 0.0 0.00 0.00 0.00 60 1014.8
20260504213921 62 157 0.0 3.5 0.00 0.00 0.00 65 1014.7
20260504212914 61 121 0.0 0.0 0.00 0.00 0.00 66 1014.8
20260504211914 60 117 0.0 0.0 0.00 0.00 0.00 67 1014.9
20260504210914 60 271 0.0 0.0 0.00 0.00 0.00 67 1015.1
20260504205915 59 5 0.0 0.0 0.00 0.00 0.00 70 1015.1
20260504204923 59 5 0.0 0.0 0.00 0.00 0.00 68 1015.1
20260504202942 59 83 0.0 0.0 0.00 0.00 0.00 68 1015.1
20260504201931 59 205 0.0 0.0 0.00 0.00 0.00 68 1015.0